Wakefield, VA

10:17 PM EST on December 10, 2019 (GMT -0500)
Wakefield Municipal

Weather History for KAKQ - October, 2019

Change the Weather History Date:

Wednesday, October 23, 2019

  Actual Average (KJGG) Record (KJGG)
Temperature  
Mean Temperature 58 °F -  
Max Temperature 72 °F 70 °F 86 °F (2007)
Min Temperature 45 °F 46 °F 26 °F (1952)
Degree Days  
Heating Degree Days 6    
Growing Degree Days 8 (Base 50)    
Moisture  
Dew Point 50 °F    
Average Humidity 77    
Maximum Humidity 93    
Minimum Humidity 30    
Precipitation  
Precipitation 0.00 in - - ()
Sea Level Pressure  
Sea Level Pressure 30.04 in    
Wind  
Wind Speed 2 mph (WNW)    
Max Wind Speed 8 mph    
Max Gust Speed -    
Visibility 10 miles    
Events      
Averages and records for this station are not official NWS values.
T = Trace of Precipitation, MM = Missing Value Source: NWS Daily Summary

Daily Weather History Graph

Daily Weather History Graph

Search for Another Location

Airport or City:

Astronomy

Oct. 23, 2019 Rise Set
Actual Time 7:22 AM EDT 6:21 PM EDT
Civil Twilight 6:56 AM EDT 6:47 PM EDT
Nautical Twilight 6:26 AM EDT 7:17 PM EDT
Astronomical Twilight 5:56 AM EDT 7:47 PM EDT
Moon 1:49 AM EDT (10/23) 4:00 PM EDT (10/23)
Length of Visible Light 11h 51m
Length of Day
10h 58m
Waning Crescent, 27% of the Moon is Illuminated
Oct 23
Waning Crescent
Oct 27
New
Nov 4
First Quarter
Nov 12
Full
Nov 19
Last Quarter

Hourly Weather History & Observations

Time (EDT) Temp. Dew Point Humidity Pressure Visibility Wind Dir Wind Speed Gust Speed Precip Events Conditions
12:21 AM 62.1 °F 59.0 °F 90% 29.87 in 10.0 mi Calm Calm - N/A   Scattered Clouds
12:54 AM 61.0 °F 57.9 °F 90% 29.88 in 10.0 mi Variable 4.6 mph - N/A   Mostly Cloudy
1:05 AM 61.0 °F 57.9 °F 90% 29.88 in 10.0 mi Variable 4.6 mph - N/A   Mostly Cloudy
1:26 AM 61.0 °F 57.9 °F 90% 29.88 in 10.0 mi NNW 3.5 mph - N/A   Mostly Cloudy
1:54 AM 60.1 °F 57.0 °F 90% 29.89 in 9.0 mi Calm Calm - N/A   Overcast
2:54 AM 59.0 °F 57.0 °F 93% 29.90 in 9.0 mi Variable 4.6 mph - N/A   Overcast
3:21 AM 59.0 °F 57.0 °F 93% 29.91 in 10.0 mi Calm Calm - N/A   Overcast
3:54 AM 59.0 °F 55.9 °F 90% 29.91 in 7.0 mi Calm Calm - N/A   Overcast
4:54 AM 57.9 °F 55.9 °F 93% 29.94 in 6.0 mi Calm Calm - N/A   Overcast
5:54 AM 57.9 °F 55.0 °F 90% 29.98 in 10.0 mi West 4.6 mph - N/A   Overcast
6:07 AM 57.0 °F 54.0 °F 89% 29.98 in 10.0 mi WNW 5.8 mph - N/A   Mostly Cloudy
6:54 AM 55.9 °F 54.0 °F 93% 30.01 in 8.0 mi West 3.5 mph - N/A   Mostly Cloudy
7:54 AM 55.0 °F 53.1 °F 93% 30.04 in 10.0 mi Calm Calm - N/A   Partly Cloudy
8:15 AM 55.9 °F 53.1 °F 90% 30.05 in 10.0 mi West 3.5 mph - N/A   Mostly Cloudy
8:54 AM 57.0 °F 54.0 °F 89% 30.08 in 10.0 mi West 3.5 mph - N/A   Overcast
9:16 AM 59.0 °F 54.0 °F 83% 30.09 in 10.0 mi West 3.5 mph - N/A   Scattered Clouds
10:54 AM 66.0 °F 46.9 °F 50% 30.09 in 10.0 mi Variable 4.6 mph - N/A   Clear
11:54 AM 68.0 °F 42.1 °F 39% 30.09 in 10.0 mi NW 4.6 mph - N/A   Clear
1:54 PM 70.0 °F 39.0 °F 32% 30.08 in 10.0 mi NNW 8.1 mph - N/A   Clear
2:54 PM 71.1 °F 37.9 °F 30% 30.07 in 10.0 mi West 5.8 mph - N/A   Clear
3:54 PM 71.1 °F 39.0 °F 31% 30.09 in 10.0 mi WNW 5.8 mph - N/A   Clear
4:54 PM 70.0 °F 39.9 °F 33% 30.11 in 10.0 mi West 6.9 mph - N/A   Clear
5:54 PM 66.0 °F 45.0 °F 47% 30.13 in 10.0 mi Calm Calm - N/A   Clear
6:54 PM 55.0 °F 46.9 °F 74% 30.16 in 10.0 mi Calm Calm - N/A   Clear
7:54 PM 52.0 °F 46.9 °F 83% 30.19 in 10.0 mi Calm Calm - N/A   Clear
8:54 PM 48.9 °F 46.0 °F 90% 30.21 in 10.0 mi Calm Calm - N/A   Clear
9:54 PM 46.9 °F 45.0 °F 93% 30.22 in 10.0 mi Calm Calm - N/A   Clear
10:54 PM 46.9 °F 44.1 °F 90% 30.24 in 10.0 mi Calm Calm - N/A   Clear
11:54 PM 45.0 °F 43.0 °F 93% 30.24 in 10.0 mi Calm Calm - N/A   Clear